Terminal Aerodrome Forecast
Issued by NWS Charleston, WV

Home | Current Version | Previous Version | Text Only | Print | Product List | Glossary On
Versions: 1 2 3 4 5 6 7 8 9 10 11 12 13 14 15 16 17 18 19 20 21 22 23 24
000
FTUS41 KRLX 301141
TAFPKB
TAF
KPKB 301141Z 3012/0112 08006KT 6SM SHRA OVC012
     FM301600 09007KT P6SM VCTS BKN060CB
     FM010300 VRB03KT 3SM -SHRA BKN040
     FM010600 VRB03KT 3SM BR BKN010=

USA.gov is the U.S. government's official web portal to all federal, state and local government web resources and services.